Simultaneous Nadir Overpasses (SNOs) Predictions

Prediction of SNOs between GOES-16 and METOP-C Satellite Orbit:

Table of predicted SNOs for the next 14.0 days since TLE Epoch: 1/18/2025
Index Date Time (GOES-16) GOES-16 Lat,Lon METOP-C Lat,Lon Distance(km) Time Diff (sec)
1 01/18/2025 02:36:58 -0.00, -75.15 -0.21, -76.09 106.27 80
2 01/19/2025 02:13:39 -0.00, -75.17 0.92, -71.10 464.26 80
3 01/20/2025 14:32:32 0.00, -75.24 0.12, -75.66 48.52 80
4 01/23/2025 02:33:33 -0.01, -75.25 -0.03, -75.26 3.45 80
5 01/25/2025 14:29:07 0.01, -75.34 -0.10, -74.84 56.38 80
6 01/27/2025 02:50:48 -0.02, -75.33 -0.95, -79.44 467.93 80
7 01/28/2025 02:27:29 -0.01, -75.36 0.20, -74.45 103.31 80
8 01/29/2025 14:49:01 0.02, -75.43 0.79, -79.02 408.55 80
9 01/30/2025 14:25:42 0.01, -75.46 -0.31, -74.02 163.31 80
